| time (UTC) | temp F | wind direction | speed MPH | gust MPH | rain 1hr in | rain 24hr in | rain mn in | humidity % | barometer mb |
| 20260510223013 | 51 | 174 | 1.0 | 3.0 | 0.00 | 0.13 | 0.00 | 80 | 1011.9 |
| 20260510221515 | 51 | 174 | 2.0 | 4.0 | 0.00 | 0.13 | 0.00 | 80 | 1011.9 |
| 20260510220011 | 51 | 174 | 3.0 | 6.0 | 0.00 | 0.19 | 0.13 | 79 | 1011.8 |
| 20260510214508 | 51 | 174 | 2.0 | 5.0 | 0.00 | 0.19 | 0.13 | 80 | 1011.8 |
| 20260510213008 | 51 | 174 | 2.0 | 4.0 | 0.00 | 0.19 | 0.13 | 79 | 1011.7 |
| 20260510211508 | 51 | 174 | 2.0 | 4.0 | 0.00 | 0.19 | 0.13 | 78 | 1011.7 |
| 20260510210006 | 52 | 175 | 4.0 | 7.0 | 0.00 | 0.20 | 0.13 | 77 | 1011.6 |
| 20260510204506 | 52 | 182 | 5.0 | 11.0 | 0.00 | 0.20 | 0.13 | 75 | 1011.5 |
| 20260510203006 | 54 | 267 | 1.0 | 3.0 | 0.00 | 0.20 | 0.13 | 71 | 1011.2 |
| 20260510201505 | 55 | 267 | 0.0 | 1.0 | 0.00 | 0.20 | 0.13 | 69 | 1011.1 |
| 20260510200005 | 55 | 267 | 1.0 | 2.0 | 0.00 | 0.20 | 0.13 | 68 | 1010.8 |
| 20260510194504 | 55 | 267 | 1.0 | 3.0 | 0.00 | 0.20 | 0.13 | 68 | 1010.8 |
| 20260510193005 | 55 | 267 | 0.0 | 2.0 | 0.00 | 0.20 | 0.13 | 68 | 1010.7 |
| 20260510191504 | 56 | 267 | 1.0 | 3.0 | 0.00 | 0.20 | 0.13 | 67 | 1010.6 |
| 20260510190003 | 57 | 265 | 1.0 | 6.0 | 0.00 | 0.20 | 0.13 | 65 | 1010.5 |
| 20260510184502 | 57 | 277 | 1.0 | 6.0 | 0.00 | 0.20 | 0.13 | 64 | 1010.4 |
| 20260510183001 | 58 | 279 | 2.0 | 8.0 | 0.00 | 0.20 | 0.13 | 63 | 1010.3 |
| 20260510181502 | 58 | 273 | 2.0 | 8.0 | 0.00 | 0.20 | 0.13 | 62 | 1010.3 |
| 20260510180001 | 57 | 225 | 4.0 | 10.0 | 0.00 | 0.20 | 0.13 | 64 | 1010.1 |
| 20260510174501 | 57 | 262 | 3.0 | 9.0 | 0.00 | 0.20 | 0.13 | 63 | 1010.4 |
| 20260510173001 | 58 | 281 | 4.0 | 17.0 | 0.00 | 0.20 | 0.13 | 58 | 1010.2 |
| 20260510171605 | 60 | 232 | 7.0 | 15.0 | 0.00 | 0.20 | 0.13 | 52 | 1010.1 |
| 20260510170116 | 59 | 243 | 6.0 | 14.0 | 0.00 | 0.20 | 0.13 | 53 | 1009.8 |
| 20260510164607 | 59 | 227 | 6.0 | 15.0 | 0.00 | 0.20 | 0.13 | 53 | 1009.8 |
| 20260510163059 | 58 | 248 | 8.0 | 16.0 | 0.00 | 0.20 | 0.13 | 55 | 1009.9 |
| 20260510161558 | 58 | 286 | 9.0 | 20.0 | 0.00 | 0.20 | 0.13 | 61 | 1009.6 |
| 20260510160106 | 58 | 313 | 5.0 | 12.0 | 0.00 | 0.20 | 0.13 | 64 | 1009.3 |
| 20260510154617 | 57 | 263 | 5.0 | 13.0 | 0.00 | 0.20 | 0.13 | 63 | 1009.5 |
| 20260510153057 | 57 | 298 | 6.0 | 18.0 | 0.00 | 0.20 | 0.13 | 63 | 1009.6 |
| 20260510151556 | 60 | 244 | 7.0 | 18.0 | 0.00 | 0.20 | 0.13 | 50 | 1008.9 |
| 20260510150053 | 60 | 211 | 5.0 | 15.0 | 0.01 | 0.20 | 0.13 | 54 | 1008.9 |
| 20260510144549 | 58 | 201 | 9.0 | 15.0 | 0.01 | 0.20 | 0.13 | 60 | 1009.3 |
| 20260510143051 | 58 | 217 | 11.0 | 20.0 | 0.01 | 0.20 | 0.13 | 63 | 1009.7 |
| 20260510141545 | 56 | 210 | 8.0 | 20.0 | 0.01 | 0.20 | 0.13 | 72 | 1009.8 |
| 20260510140046 | 56 | 210 | 7.0 | 14.0 | 0.00 | 0.20 | 0.12 | 67 | 1010.0 |
| 20260510134545 | 56 | 192 | 9.0 | 22.0 | 0.00 | 0.20 | 0.12 | 63 | 1009.7 |
| 20260510133045 | 57 | 203 | 12.0 | 22.0 | 0.00 | 0.20 | 0.12 | 65 | 1009.7 |
| 20260510131543 | 57 | 171 | 9.0 | 14.0 | 0.00 | 0.20 | 0.12 | 65 | 1009.9 |
| 20260510130142 | 0 | 0.0 | 0.0 | 0.00 | 0.20 | 0.12 | 1010.1 | ||
| 20260510124642 | 0 | 0.0 | 0.0 | 0.00 | 0.20 | 0.12 | 1010.3 | ||
| 20260510123118 | 0 | 0.0 | 0.0 | 0.00 | 0.20 | 0.12 | 1010.4 | ||
| 20260510120131 | 55 | 182 | 10.0 | 19.0 | 0.00 | 0.20 | 0.12 | 71 | 1010.3 |
| 20260510114634 | 53 | 213 | 10.0 | 17.0 | 0.00 | 0.20 | 0.12 | 78 | 1010.6 |
| 20260510113125 | 51 | 182 | 9.0 | 14.0 | 0.01 | 0.20 | 0.12 | 80 | 1010.5 |
| 20260510111632 | 49 | 187 | 8.0 | 11.0 | 0.02 | 0.20 | 0.12 | 83 | 1010.6 |
| 20260510110132 | 48 | 153 | 2.0 | 7.0 | 0.02 | 0.20 | 0.12 | 85 | 1010.7 |
| 20260510104622 | 48 | 207 | 5.0 | 14.0 | 0.06 | 0.20 | 0.12 | 85 | 1011.2 |
| 20260510103132 | 48 | 232 | 2.0 | 14.0 | 0.05 | 0.19 | 0.11 | 86 | 1011.4 |
| 20260510101649 | 49 | 250 | 8.0 | 14.0 | 0.03 | 0.17 | 0.09 | 85 | 1011.4 |
| 20260510100107 | 51 | 269 | 13.0 | 27.0 | 0.03 | 0.17 | 0.09 | 82 | 1010.9 |
| 20260510094559 | 52 | 180 | 13.0 | 18.0 | 0.01 | 0.14 | 0.06 | 79 | 1010.5 |
| 20260510093058 | 53 | 196 | 11.0 | 16.0 | 0.01 | 0.14 | 0.06 | 77 | 1010.1 |
| 20260510091604 | 53 | 173 | 9.0 | 20.0 | 0.01 | 0.14 | 0.06 | 76 | 1009.9 |
| 20260510090107 | 53 | 182 | 9.0 | 12.0 | 0.00 | 0.13 | 0.06 | 76 | 1009.8 |
| 20260510084600 | 53 | 184 | 5.0 | 10.0 | 0.00 | 0.13 | 0.06 | 77 | 1009.8 |
| 20260510083103 | 53 | 183 | 6.0 | 14.0 | 0.00 | 0.13 | 0.06 | 78 | 1009.9 |
| 20260510081551 | 53 | 184 | 3.0 | 8.0 | 0.00 | 0.13 | 0.06 | 82 | 1009.8 |
| 20260510080057 | 52 | 178 | 5.0 | 11.0 | 0.00 | 0.14 | 0.06 | 84 | 1010.0 |
| 20260510074549 | 51 | 151 | 4.0 | 8.0 | 0.00 | 0.14 | 0.06 | 87 | 1010.1 |
| 20260510073048 | 50 | 179 | 5.0 | 9.0 | 0.00 | 0.14 | 0.06 | 87 | 1010.1 |
| 20260510071548 | 50 | 165 | 7.0 | 11.0 | 0.00 | 0.14 | 0.06 | 89 | 1010.2 |
| 20260510070049 | 49 | 170 | 6.0 | 10.0 | 0.00 | 0.14 | 0.06 | 90 | 1010.0 |
| 20260510064605 | 49 | 163 | 5.0 | 10.0 | 0.00 | 0.14 | 0.06 | 90 | 1009.9 |
| 20260510063048 | 48 | 177 | 3.0 | 9.0 | 0.00 | 0.14 | 0.06 | 91 | 1010.0 |
| 20260510061550 | 48 | 156 | 2.0 | 5.0 | 0.00 | 0.14 | 0.06 | 91 | 1010.0 |
| 20260510060044 | 47 | 155 | 2.0 | 6.0 | 0.00 | 0.14 | 0.06 | 91 | 1010.0 |
| 20260510054544 | 47 | 158 | 0.0 | 5.0 | 0.00 | 0.14 | 0.06 | 92 | 1010.0 |
| 20260510053044 | 47 | 173 | 1.0 | 6.0 | 0.00 | 0.14 | 0.06 | 92 | 1009.9 |
| 20260510051544 | 47 | 165 | 0.0 | 0.0 | 0.00 | 0.14 | 0.06 | 92 | 1009.8 |
| 20260510050042 | 47 | 165 | 0.0 | 5.0 | 0.00 | 0.15 | 0.06 | 92 | 1010.0 |
| 20260510044545 | 47 | 165 | 2.0 | 6.0 | 0.00 | 0.15 | 0.06 | 92 | 1010.0 |
| 20260510043040 | 47 | 167 | 4.0 | 8.0 | 0.00 | 0.15 | 0.06 | 92 | 1010.0 |
| 20260510041539 | 48 | 179 | 6.0 | 9.0 | 0.00 | 0.15 | 0.06 | 92 | 1010.0 |
| 20260510040037 | 48 | 167 | 3.0 | 6.0 | 0.00 | 0.15 | 0.06 | 92 | 1010.0 |
| 20260510034539 | 48 | 167 | 2.0 | 5.0 | 0.00 | 0.15 | 0.06 | 92 | 1010.1 |
| 20260510033035 | 48 | 167 | 0.0 | 5.0 | 0.00 | 0.15 | 0.06 | 92 | 1010.1 |
| 20260510031537 | 48 | 167 | 5.0 | 7.0 | 0.00 | 0.15 | 0.06 | 92 | 1010.1 |
| 20260510030034 | 48 | 155 | 3.0 | 6.0 | 0.00 | 0.15 | 0.06 | 92 | 1010.2 |
| 20260510024539 | 48 | 169 | 6.0 | 10.0 | 0.00 | 0.15 | 0.06 | 91 | 1010.2 |
| 20260510023031 | 48 | 175 | 4.0 | 8.0 | 0.00 | 0.15 | 0.06 | 91 | 1010.1 |
| 20260510021529 | 48 | 166 | 2.0 | 7.0 | 0.00 | 0.15 | 0.06 | 91 | 1010.1 |
| 20260510020029 | 48 | 146 | 2.0 | 5.0 | 0.00 | 0.15 | 0.06 | 91 | 1010.3 |
| 20260510014531 | 48 | 141 | 2.0 | 4.0 | 0.00 | 0.15 | 0.06 | 91 | 1010.3 |
| 20260510013028 | 48 | 140 | 1.0 | 5.0 | 0.00 | 0.15 | 0.06 | 91 | 1010.2 |
| 20260510011527 | 48 | 178 | 3.0 | 8.0 | 0.00 | 0.15 | 0.06 | 90 | 1010.4 |
| 20260510010025 | 48 | 170 | 6.0 | 9.0 | 0.01 | 0.15 | 0.06 | 90 | 1010.5 |
| 20260510004523 | 49 | 168 | 5.0 | 8.0 | 0.01 | 0.15 | 0.06 | 90 | 1010.5 |
| 20260510003022 | 49 | 169 | 3.0 | 6.0 | 0.02 | 0.15 | 0.06 | 89 | 1010.5 |
| 20260510001521 | 49 | 172 | 0.0 | 5.0 | 0.04 | 0.15 | 0.06 | 89 | 1010.3 |
| 20260510000020 | 49 | 173 | 5.0 | 9.0 | 0.03 | 0.14 | 0.05 | 88 | 1010.7 |
| 20260509234533 | 49 | 148 | 3.0 | 9.0 | 0.03 | 0.14 | 0.05 | 88 | 1010.6 |
| 20260509233030 | 50 | 196 | 6.0 | 12.0 | 0.01 | 0.12 | 0.02 | 88 | 1011.0 |
| 20260509231513 | 50 | 242 | 2.0 | 3.0 | 0.01 | 0.11 | 0.02 | 87 | 1010.5 |
| 20260509230011 | 50 | 242 | 0.0 | 3.0 | 0.02 | 0.11 | 0.02 | 87 | 1010.1 |
| 20260509224514 | 50 | 242 | 0.0 | 4.0 | 0.02 | 0.11 | 0.02 | 86 | 1010.2 |